[[{"header":{"parameterUnit":"m.s-1","parameterCategory":1,"la1":30.2991,"la2":30.254,"lo1":-89.0895,"lo2":-89.0444,"dy":0.0017,"dx":0.0017,"nx":28,"ny":28,"refTime":"2023-11-17T03:00:00:Z","depth":0,"parameterNumber":2,"parameterNumberName":"U-component_of_WINDS"},"data":[0,0,0,0,0,0,0,0,0,0,0,0,0,0,0,0,0,0,0,0,0,0,0,0,0,0,0,0,0,0,0,0,0,0,0,0,0,0,0,0,0,0,0,0,0,0,0,0,0,0,0,0,0,0,0,0,0,0,0.1044,0.1045,0,0.1081,0.1082,0.1082,0.115,0.1152,0.1153,0.1154,0.119,0.119,0.119,0,0,0,0,0,0,0,0,0,0,0,0,0,0.103,0.103,0.1044,0.1045,0.1045,0.1081,0.1082,0.1082,0.115,0.1152,0.1153,0.1155,0.119,0.119,0.119,0,0,0,0,0,0,0,0,0,0,0,0,0,0.1049,0.103,0.1044,0.1083,0.1087,0.1081,0.1082,0.1082,0.115,0.1152,0.1154,0.1156,0.119,0.119,0.1189,0.1147,0,0,0.1188,0.1188,0,0,0,0,0,0,0,0,0.1048,0.1049,0.1077,0.1081,0.1085,0.1113,0.109,0.1104,0.1149,0.1126,0.1154,0.1157,0.1163,0.1165,0.1167,0.1149,0.115,0.1188,0.1188,0.1188,0.1188,0,0,0,0,0,0,0,0.1046,0.1048,0.1059,0.1078,0.1082,0.1099,0.1103,0.1093,0.1133,0.1128,0.1133,0.1137,0.1165,0.1167,0.1169,0.1151,0.1188,0.1188,0.1187,0.1187,0.1098,0.1096,0,0,0,0,0,0,0.1039,0.1046,0.1058,0.106,0.1071,0.1097,0.1103,0.1102,0.1133,0.114,0.1135,0.114,0.1167,0.1169,0.117,0.1121,0.1188,0.1187,0.1187,0.11,0.1097,0.1095,0,0,0,0,0,0,0.1039,0.104,0.1056,0.1055,0.1058,0.1095,0.1094,0.1102,0.1104,0.1138,0.1146,0.113,0.1169,0.1171,0.1152,0.1123,0.1187,0.1187,0.1102,0.1099,0.1096,0.1024,0,0,0,0,0,0,0.1038,0.1039,0.1024,0.1054,0.1058,0.1038,0.1093,0.1101,0.1103,0.111,0.1136,0.1142,0.1171,0.1152,0.1152,0.1124,0.1186,0.1105,0.1101,0.1097,0.1029,0.1018,0.1009,0,0,0,0,0,0.1038,0.1002,0.1023,0.1024,0.104,0.1036,0.1038,0.1073,0.1101,0.1085,0.1107,0.1141,0.1127,0.115,0.115,0.1121,0.1107,0.1102,0.1097,0.1033,0.102,0.101,0,0,0,0,0,0,0.0967,0.1007,0.103,0.1003,0.1016,0.1048,0.1029,0.1059,0.1063,0.1069,0.1111,0.1116,0.1092,0.1105,0.113,0.1081,0.1122,0.1117,0.1073,0.1062,0.1052,0.1049,0.1186,0,0,0,0,0,0.0949,0.0944,0.0978,0.0951,0.0956,0.0991,0.0991,0.1017,0.1031,0.1037,0.1057,0.1069,0.1068,0.1066,0.1066,0.1031,0.1037,0.1012,0.1002,0.0994,0.0989,0.097,0.0959,0.1079,0.1079,0.1079,0,0,0.091,0.0931,0.0925,0.0937,0.095,0.0943,0.0995,0.0986,0.098,0.1035,0.1018,0.1034,0.105,0.1023,0.1012,0.1033,0.0957,0.0988,0.0981,0.098,0.0964,0.0952,0.0942,0.1076,0.1077,0.1077,0,0,0.0836,0.0852,0.0831,0.0842,0.0861,0.0885,0.088,0.0907,0.0919,0.0904,0.0944,0.0938,0.0935,0.0944,0.0949,0.0877,0.0908,0.0876,0.0825,0.0807,0.0797,0.0789,0.0762,0.0752,0.0871,0.0871,0.0871,0,0.0786,0.0777,0.0816,0.0803,0.0807,0.0857,0.0835,0.0844,0.0861,0.0862,0.0886,0.0882,0.0897,0.0872,0.0854,0.0857,0.0851,0.0873,0.0796,0.0788,0.078,0.0755,0.0745,0.0867,0.0867,0.0868,0.0868,0,0.0713,0.0706,0.0687,0.0703,0.0704,0.0687,0.0722,0.0719,0.0744,0.0765,0.0747,0.0767,0.0771,0.0768,0.0792,0.0745,0.0758,0.0788,0.083,0.0764,0.0741,0.0732,0.0861,0.0863,0.0864,0.0865,0,0,0.0596,0.0633,0.0625,0.0632,0.0657,0.0652,0.0636,0.0641,0.0637,0.0647,0.0634,0.063,0.0658,0.0662,0.0689,0.0672,0.0612,0.0704,0.0705,0.0685,0.056,0.0536,0.0524,0.0633,0.0632,0.0631,0.0558,0,0.0526,0.0502,0.0536,0.0504,0.0497,0.0544,0.0531,0.0543,0.0562,0.0558,0.0579,0.0575,0.0613,0.0616,0.0602,0.0623,0.0588,0.0629,0.062,0.0619,0.0613,0.0513,0.0488,0.0418,0.055,0.0548,0.0547,0,0.0441,0.0447,0.0414,0.0439,0.0438,0.0425,0.0432,0.0428,0.0443,0.0458,0.0463,0.0494,0.048,0.0521,0.05,0.0527,0.0526,0.0536,0.0534,0.0533,0.0578,0.0508,0.0398,0.0386,0.0534,0.0535,0.0536,0,0.0356,0.0356,0.0337,0.0342,0.0371,0.036,0.0372,0.0389,0.039,0.0395,0.0396,0.04,0.0401,0.0403,0.0434,0.0461,0.0409,0.0453,0.0419,0.0418,0.0405,0.0405,0.0291,0.0407,0.0407,0.0407,0.0407,0,0.0273,0.0251,0.0299,0.0286,0.0262,0.0302,0.0276,0.0293,0.0307,0.0298,0.034,0.033,0.0372,0.0366,0.0391,0.0369,0.037,0.038,0.0387,0.0376,0.0374,0.0374,0.0379,0.0404,0.0405,0.0405,0.0406,0,0.0174,0.0206,0.0187,0.0216,0.0223,0.0204,0.0228,0.0217,0.0239,0.0227,0.0226,0.026,0.0255,0.0287,0.0288,0.0304,0.027,0.0286,0.0265,0.0269,0.0233,0.0235,0.0114,0.0099,0.0225,0.0224,0.0223,0,0.0119,0.0102,0.013,0.0127,0.0137,0.0131,0.0132,0.017,0.0169,0.0184,0.0171,0.017,0.0171,0.0161,0.0185,0.0186,0.0201,0.0159,0.0201,0.019,0.0198,0.0198,0.0196,0.0149,0.0147,0.0146,0.0145,0,0.0016,0.0032,0.0032,0.0036,0.0036,0.0041,0.005,0.0045,0.0086,0.0082,0.0078,0.0079,0.008,0.0078,0.0084,0.0095,0.0126,0.0132,0.0123,0.0111,0.0099,0.0103,0.0239,0.0134,0.0135,0.0136,0.0136,0.0137,-0.0064,-0.0077,-0.006,-0.0062,-0.0052,-0.0045,-0.0054,-0.0034,-0.0036,-0.0032,-0.0009,-0.0018,-0.0004,0.0007,0.0015,0.0008,0.0029,0.0017,0.0014,0.001,0.0003,0.0101,0.001,0.001,0.001,0.0011,0.0011,0,-0.0166,-0.0153,-0.0155,-0.0145,-0.0147,-0.0116,-0.0106,-0.011,-0.0118,-0.0107,-0.0107,-0.0112,-0.0114,-0.009,-0.0089,-0.01,-0.0086,-0.0101,-0.0101,-0.0099,-0.0014,-0.0008,-0.0112,-0.0112,-0.0112,-0.0112,-0.0112,-0.0112,-0.0219,-0.024,-0.0222,-0.0237,-0.0223,-0.0231,-0.0228,-0.0223,-0.0214,-0.0221,-0.0223,-0.0207,-0.0191,-0.0189,-0.019,-0.0183,-0.0186,-0.0206,-0.0195,-0.0117,-0.0105,-0.0093,-0.0088,-0.0207,-0.0207,-0.0279,-0.028,-0.028]},{"header":{"parameterUnit":"m.s-1","parameterCategory":1,"la1":30.2991,"la2":30.254,"lo1":-89.0895,"lo2":-89.0444,"dy":0.0017,"dx":0.0017,"nx":28,"ny":28,"refTime":"2023-11-17T03:00:00:Z","depth":0,"parameterNumber":3,"parameterNumberName":"V-component_of_WINDS"},"data":[0,0,0,0,0,0,0,0,0,0,0,0,0,0,0,0,0,0,0,0,0,0,0,0,0,0,0,0,0,0,0,0,0,0,0,0,0,0,0,0,0,0,0,0,0,0,0,0,0,0,0,0,0,0,0,0,0,0,-0.9219,-0.9218,0,-0.9143,-0.9143,-0.9142,-0.9057,-0.9055,-0.9054,-0.9053,-0.8977,-0.8976,-0.8975,0,0,0,0,0,0,0,0,0,0,0,0,0,-0.9291,-0.929,-0.9219,-0.9218,-0.9217,-0.9144,-0.9143,-0.9142,-0.9057,-0.9055,-0.9054,-0.9052,-0.8977,-0.8976,-0.8975,0,0,0,0,0,0,0,0,0,0,0,0,0,-0.9242,-0.929,-0.9219,-0.9166,-0.916,-0.9144,-0.9143,-0.9141,-0.9057,-0.9055,-0.9053,-0.9052,-0.8977,-0.8976,-0.8975,-0.9005,0,0,-0.8971,-0.897,0,0,0,0,0,0,0,0,-0.9245,-0.924,-0.9175,-0.917,-0.9163,-0.9107,-0.914,-0.9096,-0.9058,-0.9096,-0.9053,-0.9051,-0.9022,-0.9017,-0.9007,-0.9001,-0.8998,-0.8971,-0.897,-0.8969,-0.8969,0,0,0,0,0,0,0,-0.9249,-0.9242,-0.9189,-0.9174,-0.9167,-0.9146,-0.9137,-0.9131,-0.9071,-0.9093,-0.9086,-0.9079,-0.9018,-0.9008,-0.9004,-0.8997,-0.8971,-0.897,-0.8969,-0.8968,-0.9014,-0.9016,0,0,0,0,0,0,-0.926,-0.9246,-0.9191,-0.9187,-0.92,-0.9147,-0.9136,-0.9127,-0.907,-0.906,-0.908,-0.9075,-0.9011,-0.9006,-0.9001,-0.9034,-0.8969,-0.8968,-0.8967,-0.9012,-0.9014,-0.9017,0,0,0,0,0,0,-0.9262,-0.9256,-0.9194,-0.9214,-0.9205,-0.9147,-0.9138,-0.9127,-0.9117,-0.9061,-0.905,-0.9081,-0.901,-0.9003,-0.9005,-0.9031,-0.8968,-0.8966,-0.901,-0.9013,-0.9015,-0.91,0,0,0,0,0,0,-0.9264,-0.9257,-0.9267,-0.9215,-0.9204,-0.9199,-0.9139,-0.9127,-0.9115,-0.9107,-0.9059,-0.9049,-0.9008,-0.9007,-0.9004,-0.9028,-0.8965,-0.9007,-0.9011,-0.9015,-0.9095,-0.9106,-0.9115,0,0,0,0,0,-0.9267,-0.9294,-0.9268,-0.9262,-0.9216,-0.9201,-0.9195,-0.9146,-0.9117,-0.9127,-0.9092,-0.9051,-0.9028,-0.9008,-0.9003,-0.9027,-0.9005,-0.901,-0.9014,-0.909,-0.9104,-0.9115,0,0,0,0,0,0,-0.9351,-0.9286,-0.9257,-0.9268,-0.9241,-0.9187,-0.9198,-0.9161,-0.9142,-0.9136,-0.9076,-0.9066,-0.9076,-0.9051,-0.903,-0.9054,-0.9011,-0.9015,-0.907,-0.9082,-0.9092,-0.9099,-0.8964,0,0,0,0,0,-0.937,-0.9363,-0.9307,-0.9322,-0.931,-0.9257,-0.9248,-0.9213,-0.9182,-0.9171,-0.9135,-0.9107,-0.9094,-0.9086,-0.9071,-0.909,-0.908,-0.9104,-0.9115,-0.9123,-0.9128,-0.9138,-0.9149,-0.9031,-0.9031,-0.9031,0,0,-0.9411,-0.9375,-0.9374,-0.9338,-0.9313,-0.9307,-0.9247,-0.9244,-0.9239,-0.917,-0.917,-0.9143,-0.9108,-0.912,-0.9123,-0.91,-0.9158,-0.9129,-0.9136,-0.9136,-0.9144,-0.9155,-0.9165,-0.9034,-0.9034,-0.9033,0,0,-0.9483,-0.9454,-0.9464,-0.944,-0.9403,-0.9367,-0.937,-0.9321,-0.9301,-0.93,-0.9249,-0.9242,-0.922,-0.9198,-0.9184,-0.9248,-0.9211,-0.9245,-0.9298,-0.9309,-0.9319,-0.9327,-0.9352,-0.9361,-0.9249,-0.9249,-0.9249,0,-0.9539,-0.9528,-0.9474,-0.9474,-0.9461,-0.9398,-0.9409,-0.9388,-0.9347,-0.934,-0.9314,-0.9286,-0.9258,-0.9264,-0.928,-0.927,-0.9272,-0.9251,-0.9321,-0.9329,-0.9336,-0.9359,-0.9368,-0.9254,-0.9253,-0.9253,-0.9253,0,-0.9599,-0.9593,-0.9605,-0.9569,-0.9556,-0.9561,-0.951,-0.9504,-0.947,-0.9438,-0.9438,-0.9402,-0.9379,-0.9378,-0.9344,-0.938,-0.9367,-0.9332,-0.9288,-0.9352,-0.9374,-0.9382,-0.9261,-0.9259,-0.9258,-0.9256,0,0,-0.9723,-0.9656,-0.9662,-0.9645,-0.9599,-0.9594,-0.9596,-0.9574,-0.9571,-0.9545,-0.9547,-0.953,-0.9498,-0.9482,-0.9446,-0.9455,-0.9511,-0.9419,-0.9417,-0.944,-0.9551,-0.9579,-0.9591,-0.9485,-0.9487,-0.9488,-0.9555,0,-0.9788,-0.9789,-0.9742,-0.9757,-0.9751,-0.9691,-0.9694,-0.9667,-0.9636,-0.9628,-0.9594,-0.9584,-0.9541,-0.9531,-0.9538,-0.9503,-0.9533,-0.9497,-0.9488,-0.9489,-0.9501,-0.9601,-0.9631,-0.9696,-0.9562,-0.9564,-0.9565,0,-0.9865,-0.9844,-0.9859,-0.9813,-0.9809,-0.9813,-0.9789,-0.9781,-0.9749,-0.9726,-0.9709,-0.9668,-0.9669,-0.9625,-0.9626,-0.9603,-0.9596,-0.9579,-0.958,-0.9579,-0.9532,-0.9605,-0.9715,-0.9726,-0.9577,-0.9576,-0.9575,0,-0.9956,-0.9932,-0.9938,-0.9925,-0.9872,-0.9876,-0.9854,-0.982,-0.981,-0.9789,-0.9783,-0.9762,-0.9752,-0.9737,-0.9692,-0.9664,-0.9699,-0.9651,-0.9682,-0.9684,-0.9694,-0.9695,-0.9807,-0.9686,-0.9686,-0.9686,-0.9686,0,-1.0036,-1.0048,-0.9978,-0.9983,-0.9994,-0.994,-0.9953,-0.9925,-0.9896,-0.9894,-0.984,-0.984,-0.9779,-0.9772,-0.9736,-0.9744,-0.9739,-0.9722,-0.9713,-0.9728,-0.9731,-0.9725,-0.972,-0.9688,-0.9688,-0.9687,-0.9687,0,-1.0141,-1.0095,-1.0098,-1.0047,-1.0035,-1.0046,-1.0003,-1.0005,-0.9972,-0.9971,-0.9967,-0.9915,-0.9904,-0.9857,-0.9834,-0.9811,-0.9831,-0.9811,-0.9843,-0.9837,-0.9871,-0.987,-0.9986,-0.9999,-0.9868,-0.9869,-0.987,0,-1.0196,-1.0204,-1.0154,-1.0149,-1.013,-1.0122,-1.0112,-1.0058,-1.005,-1.0015,-1.0022,-1.0007,-0.9992,-0.9978,-0.9938,-0.9922,-0.9902,-0.9944,-0.99,-0.9916,-0.9906,-0.9907,-0.9909,-0.9955,-0.9956,-0.9958,-0.9959,0,-1.0299,-1.0276,-1.0263,-1.0243,-1.0232,-1.0213,-1.0192,-1.0191,-1.0131,-1.0125,-1.0113,-1.0102,-1.0079,-1.0066,-1.0043,-1.0021,-0.9981,-0.9973,-0.9979,-0.9996,-1.0015,-1.0008,-0.9871,-0.9971,-0.997,-0.9969,-0.9968,-0.9968,-1.0382,-1.0387,-1.0354,-1.0341,-1.0319,-1.0301,-1.0301,-1.0267,-1.0257,-1.0235,-1.0203,-1.0197,-1.0165,-1.013,-1.0111,-1.0106,-1.0083,-1.0092,-1.0095,-1.0099,-1.0108,-1.0014,-1.0101,-1.0101,-1.01,-1.01,-1.01,0,-1.0484,-1.046,-1.0449,-1.0421,-1.0412,-1.0374,-1.0348,-1.0343,-1.0338,-1.0312,-1.0299,-1.0287,-1.0273,-1.0233,-1.0216,-1.022,-1.0201,-1.0217,-1.0218,-1.0214,-1.0127,-1.0125,-1.0233,-1.0233,-1.0233,-1.0233,-1.0233,-1.0233,-1.0537,-1.0544,-1.0517,-1.0513,-1.0488,-1.0481,-1.047,-1.0453,-1.0433,-1.0421,-1.041,-1.0384,-1.0352,-1.0333,-1.032,-1.0308,-1.0306,-1.0328,-1.0311,-1.0232,-1.0219,-1.0207,-1.0204,-1.0328,-1.0328,-1.0398,-1.0399,-1.0399]}]]